Regional Weather Roundup
Issued by NWS

Home | Current Version | Previous Version | Text Only | Print | Product List | Glossary On
Versions: 1 2 3 4 5 6 7 8 9 10 11 12 13 14 15 16 17 18 19 20 21 22 23 24 25 26 27 28 29 30 31 32 33 34 35 36 37 38 39 40 41 42 43 44 45 46 47 48 49 50
000
ASUS44 KOUN 011210
RWROK

WEATHER ROUNDUP FOR OKLAHOMA
NATIONAL WEATHER SERVICE NORMAN OK
700 AM CDT WED OCT 01 2014

NOTE: "FAIR" INDICATES FEW OR NO CLOUDS BELOW 12,000 FEET WITH NO
      SIGNIFICANT WEATHER AND/OR OBSTRUCTIONS TO VISIBILITY.

OKZ001>007-009>012-014-015-017-011300-
NORTHWEST OKLAHOMA AND THE PANHANDLE

CITY           SKY/WX    TMP DP  RH WIND       PRES   REMARKS
GAGE           CLEAR     63  57  81 S14       29.70R
6HR MIN TEMP:  63; 6HR MAX TEMP:  72;

ENID/WOODRING  PTCLDY    70  66  88 SE12      29.69S
$$

OKZ016-021>023-033>039-044-045-011300-
SOUTHWEST OKLAHOMA

CITY           SKY/WX    TMP DP  RH WIND       PRES   REMARKS
LAWTON/REGL    CLEAR     71  64  78 SE6       29.75R
6HR MIN TEMP:  71; 6HR MAX TEMP:  75;

LAWTON/FT SILL CLEAR     71  64  78 S9        29.74R
FREDERICK      CLEAR     72  62  71 S10       29.71R
CLINTON        CLEAR     69  60  73 S14       29.74R
HOBART         MOCLDY    71  61  70 S14       29.73R
ALTUS AFB      CLEAR     66  62  85 SE9       29.73R
$$

OKZ018>020-024>031-011300-
CENTRAL OKLAHOMA

CITY           SKY/WX    TMP DP  RH WIND       PRES   REMARKS
OKLAHOMA CITY  PTCLDY    71  65  81 S12       29.74S
6HR MIN TEMP:  70; 6HR MAX TEMP:  74;

OKC/WILEY POST CLEAR     71  66  84 S14       29.74R
OKC/TINKER AFB CLEAR     72  66  82 S16       29.75R
STILLWATER     CLEAR     69  66  90 SE9       29.72F
GUTHRIE        CLEAR     73  66  78 S10       29.72S
$$

OKZ008-013-054>072-011300-
NORTHEAST OKLAHOMA

CITY           SKY/WX    TMP DP  RH WIND       PRES   REMARKS
TULSA          MOCLDY    71  63  75 S9        29.78R
6HR MIN TEMP:  71; 6HR MAX TEMP:  74;

TULSA/JONES    MOCLDY    70  64  81 S7        29.77R
PONCA CITY     CLOUDY    70  66  87 E6        29.73S
BARTLESVILLE   CLOUDY    69  65  86 S7        29.77S
MUSKOGEE       CLEAR     66  62  87 S7        29.81R
$$

OKZ032-040>043-046>053-073>077-011300-
SOUTH CENTRAL/SOUTHEAST OKLAHOMA

CITY           SKY/WX    TMP DP  RH WIND       PRES   REMARKS
ARDMORE/DWNTWN MOCLDY    72  68  88 S6        29.79R
MCALESTER      CLEAR     72  68  87 S5        29.81R
$$



USA.gov is the U.S. government's official web portal to all federal, state and local government web resources and services.